When you browse on this site, cookies collect data to enhance your experience and personalize the content and advertising you see.
Visit our Privacy Policy to learn more. By continuing to use the site, you agree to this use of cookies and data.
  • In Italy
  • List of Countries
  • For 7 days
  • Water Temperature
  • Satellite Maps
  • Weather Map
  • Weather Widgets
  • user-avatar
    Login

    Hourly Weather Szadowo

    Today, 23 July, Tuesday

    Time Temperature Precipitation Wind Pressure Humidity
    00:00 +16°C° 0 mm 2 mps 757 mmHg 82%
    01:00 +16°C° 0 mm 2 mps 757 mmHg 83%
    02:00 +16°C° 0.1 mm 2 mps 757 mmHg 83%
    03:00 +15°C° 0.1 mm 2 mps 757 mmHg 84%
    04:00 +15°C° 0.1 mm 2 mps 757 mmHg 85%
    05:00 +16°C° 0 mm 2 mps 757 mmHg 86%
    06:00 +16°C° 0 mm 1 mps 757 mmHg 88%
    07:00 +16°C° 0 mm 1 mps 757 mmHg 89%
    08:00 +16°C° 0.1 mm 1 mps 757 mmHg 88%
    09:00 +16°C° 0.1 mm 1 mps 757 mmHg 88%
    10:00 +18°C° 0.1 mm 1 mps 757 mmHg 87%
    11:00 +18°C° 0 mm 1 mps 757 mmHg 87%
    12:00 +17°C° 0 mm 2 mps 757 mmHg 86%
    13:00 +18°C° 0 mm 2 mps 757 mmHg 86%
    14:00 +18°C° 0 mm 2 mps 757 mmHg 86%
    15:00 +19°C° 0 mm 1 mps 757 mmHg 86%
    16:00 +20°C° 0 mm 1 mps 757 mmHg 86%
    17:00 +20°C° 0 mm 1 mps 757 mmHg 88%
    18:00 +20°C° 0 mm 1 mps 756 mmHg 90%
    19:00 +20°C° 0 mm 1 mps 756 mmHg 92%
    20:00 +19°C° 0 mm 1 mps 756 mmHg 93%
    21:00 +19°C° 0 mm 1 mps 757 mmHg 94%
    22:00 +19°C° 0 mm 1 mps 757 mmHg 95%
    23:00 +19°C° 0 mm 1 mps 757 mmHg 95%

    Tomorrow, 24 July, Wednesday

    Time Temperature Precipitation Wind Pressure Humidity
    00:00 +18°C° 0 mm 1 mps 757 mmHg 95%
    01:00 +16°C° 0 mm 0 mps 757 mmHg 95%
    02:00 +16°C° 0 mm 0 mps 757 mmHg 96%
    03:00 +15°C° 0 mm 0 mps 756 mmHg 96%
    04:00 +14°C° 0 mm 0 mps 756 mmHg 97%
    05:00 +16°C° 0 mm 0 mps 756 mmHg 93%
    06:00 +17°C° 0 mm 0 mps 756 mmHg 89%
    07:00 +19°C° 0 mm 0 mps 756 mmHg 85%
    08:00 +20°C° 0 mm 0 mps 757 mmHg 81%
    09:00 +21°C° 0 mm 0 mps 757 mmHg 78%
    10:00 +22°C° 0 mm 0 mps 757 mmHg 74%
    11:00 +24°C° 0.1 mm 1 mps 757 mmHg 71%
    12:00 +25°C° 0.1 mm 1 mps 757 mmHg 68%
    13:00 +26°C° 0.1 mm 1 mps 756 mmHg 65%
    14:00 +26°C° 0.1 mm 2 mps 756 mmHg 64%
    15:00 +26°C° 0.1 mm 2 mps 756 mmHg 63%
    16:00 +26°C° 0.1 mm 2 mps 756 mmHg 63%
    17:00 +25°C° 0 mm 2 mps 756 mmHg 68%
    18:00 +24°C° 0 mm 3 mps 756 mmHg 74%
    19:00 +21°C° 0 mm 3 mps 756 mmHg 79%
    20:00 +20°C° 0 mm 2 mps 756 mmHg 83%
    21:00 +19°C° 0 mm 2 mps 757 mmHg 87%
    22:00 +17°C° 0 mm 2 mps 757 mmHg 90%
    23:00 +17°C° 0 mm 2 mps 757 mmHg 90%

    Day after tomorrow, 25 July, Thursday

    Time Temperature Precipitation Wind Pressure Humidity
    00:00 +17°C° 0 mm 2 mps 757 mmHg 90%
    01:00 +16°C° 0 mm 1 mps 757 mmHg 89%
    02:00 +16°C° 0 mm 1 mps 757 mmHg 89%
    03:00 +16°C° 0 mm 1 mps 757 mmHg 89%
    04:00 +15°C° 0 mm 1 mps 757 mmHg 89%
    05:00 +18°C° 0 mm 1 mps 757 mmHg 83%
    06:00 +18°C° 0 mm 2 mps 757 mmHg 77%
    07:00 +20°C° 0 mm 2 mps 757 mmHg 71%
    08:00 +21°C° 0 mm 2 mps 758 mmHg 67%
    09:00 +23°C° 0 mm 2 mps 758 mmHg 62%
    10:00 +25°C° 0 mm 3 mps 758 mmHg 57%
    11:00 +25°C° 0 mm 3 mps 758 mmHg 56%
    12:00 +26°C° 0 mm 3 mps 757 mmHg 54%
    13:00 +26°C° 0 mm 4 mps 757 mmHg 53%
    14:00 +26°C° 0 mm 4 mps 757 mmHg 54%
    15:00 +25°C° 0 mm 4 mps 757 mmHg 55%
    16:00 +25°C° 0 mm 5 mps 757 mmHg 56%
    17:00 +22°C° 0 mm 4 mps 757 mmHg 63%
    18:00 +21°C° 0 mm 4 mps 757 mmHg 70%
    19:00 +19°C° 0 mm 3 mps 757 mmHg 77%
    20:00 +18°C° 0 mm 3 mps 757 mmHg 83%
    21:00 +17°C° 0 mm 3 mps 757 mmHg 88%
    22:00 +15°C° 0 mm 2 mps 757 mmHg 94%
    23:00 +14°C° 0 mm 3 mps 757 mmHg 95%

    26 July, Friday

    Time Temperature Precipitation Wind Pressure Humidity
    00:00 +14°C° 0 mm 3 mps 757 mmHg 95%
    01:00 +14°C° 0 mm 3 mps 757 mmHg 96%
    02:00 +14°C° 0 mm 3 mps 757 mmHg 96%
    03:00 +14°C° 0 mm 3 mps 757 mmHg 96%
    04:00 +16°C° 0 mm 3 mps 757 mmHg 96%
    05:00 +17°C° 0 mm 3 mps 756 mmHg 91%
    06:00 +19°C° 0 mm 4 mps 756 mmHg 86%
    07:00 +20°C° 0 mm 4 mps 756 mmHg 81%
    08:00 +22°C° 0 mm 4 mps 756 mmHg 75%
    09:00 +23°C° 0 mm 4 mps 757 mmHg 68%
    10:00 +25°C° 0 mm 5 mps 757 mmHg 62%
    11:00 +25°C° 0 mm 5 mps 757 mmHg 61%
    12:00 +26°C° 0 mm 5 mps 756 mmHg 60%
    13:00 +26°C° 0 mm 5 mps 756 mmHg 58%
    14:00 +26°C° 0.1 mm 5 mps 756 mmHg 62%
    15:00 +26°C° 0.1 mm 5 mps 756 mmHg 65%
    16:00 +24°C° 0.1 mm 6 mps 756 mmHg 68%
    17:00 +23°C° 0.1 mm 5 mps 756 mmHg 73%
    18:00 +22°C° 0.1 mm 4 mps 756 mmHg 78%
    19:00 +21°C° 0.1 mm 4 mps 756 mmHg 82%
    20:00 +20°C° 0 mm 4 mps 756 mmHg 86%
    21:00 +19°C° 0 mm 3 mps 756 mmHg 91%
    22:00 +18°C° 0 mm 3 mps 756 mmHg 95%
    23:00 +18°C° 0 mm 3 mps 756 mmHg 95%

    27 July, Saturday

    Time Temperature Precipitation Wind Pressure Humidity
    00:00 +18°C° 0 mm 3 mps 756 mmHg 95%
    01:00 +17°C° 0 mm 2 mps 756 mmHg 95%
    02:00 +17°C° 0 mm 2 mps 756 mmHg 96%
    03:00 +17°C° 0 mm 2 mps 756 mmHg 96%
    04:00 +17°C° 0 mm 2 mps 756 mmHg 96%
    05:00 +18°C° 0 mm 2 mps 756 mmHg 92%
    06:00 +20°C° 0 mm 3 mps 756 mmHg 87%
    07:00 +21°C° 0 mm 3 mps 756 mmHg 83%
    08:00 +24°C° 0 mm 3 mps 756 mmHg 75%
    09:00 +26°C° 0 mm 4 mps 756 mmHg 68%
    10:00 +28°C° 0 mm 4 mps 757 mmHg 60%
    11:00 +28°C° 0 mm 4 mps 756 mmHg 58%
    12:00 +29°C° 0 mm 4 mps 756 mmHg 55%
    13:00 +30°C° 0 mm 4 mps 756 mmHg 53%
    14:00 +30°C° 0.1 mm 4 mps 756 mmHg 55%
    15:00 +29°C° 0.1 mm 5 mps 756 mmHg 57%
    16:00 +29°C° 0.1 mm 5 mps 755 mmHg 59%
    17:00 +28°C° 0 mm 4 mps 755 mmHg 65%
    18:00 +26°C° 0 mm 4 mps 755 mmHg 72%
    19:00 +25°C° 0 mm 4 mps 755 mmHg 78%
    20:00 +24°C° 0 mm 3 mps 756 mmHg 83%
    21:00 +21°C° 0 mm 3 mps 756 mmHg 88%
    22:00 +20°C° 0 mm 2 mps 756 mmHg 92%
    23:00 +20°C° 0 mm 2 mps 756 mmHg 92%

    28 July, Sunday

    Time Temperature Precipitation Wind Pressure Humidity
    00:00 +20°C° 0 mm 2 mps 756 mmHg 93%
    01:00 +19°C° 0 mm 2 mps 756 mmHg 93%
    02:00 +19°C° 0 mm 2 mps 756 mmHg 93%
    03:00 +19°C° 0 mm 2 mps 756 mmHg 93%
    04:00 +19°C° 0 mm 2 mps 756 mmHg 93%
    05:00 +20°C° 0 mm 2 mps 756 mmHg 88%
    06:00 +23°C° 0 mm 2 mps 756 mmHg 83%
    07:00 +25°C° 0 mm 2 mps 756 mmHg 77%
    08:00 +26°C° 0 mm 2 mps 756 mmHg 71%
    09:00 +28°C° 0 mm 2 mps 756 mmHg 64%
    10:00 +29°C° 0 mm 2 mps 756 mmHg 58%
    11:00 +30°C° 0 mm 3 mps 756 mmHg 55%
    12:00 +30°C° 0 mm 3 mps 756 mmHg 53%
    13:00 +31°C° 0 mm 3 mps 756 mmHg 50%
    14:00 +31°C° 0 mm 3 mps 756 mmHg 52%
    15:00 +30°C° 0 mm 3 mps 755 mmHg 55%
    16:00 +30°C° 0 mm 4 mps 755 mmHg 57%
    17:00 +28°C° 0 mm 3 mps 755 mmHg 64%
    18:00 +26°C° 0 mm 3 mps 755 mmHg 70%
    19:00 +25°C° 0 mm 3 mps 755 mmHg 77%
    20:00 +24°C° 0 mm 3 mps 755 mmHg 79%
    21:00 +21°C° 0 mm 2 mps 755 mmHg 82%
    22:00 +20°C° 0 mm 2 mps 756 mmHg 85%
    23:00 +20°C° 0 mm 2 mps 756 mmHg 86%
    Show more